KO6FIK Weather Reports


time (UTC)temp
C
wind
direction
speed
KPH
gust
KPH
rain 1hr
cm
rain 24hr
cm
rain mn
cm
humidity
%
barometer
mb
20260506201508 20 124 0.0 3.2 0.00 0.13 0.03 70 1020.4
20260506200014 20 134 0.0 4.8 0.00 0.13 0.03 69 1020.4
20260506194518 20 162 0.0 1.6 0.00 0.13 0.03 72 1020.6
20260506193005 19 211 0.0 3.2 0.00 0.15 0.03 71 1020.9
20260506191504 19 242 0.0 4.8 0.00 0.15 0.03 72 1020.9
20260506190008 19 303 0.0 4.8 0.00 0.15 0.03 73 1021.0
20260506184516 18 32 0.0 4.8 0.00 0.15 0.03 73 1021.0
20260506183020 18 215 0.0 3.2 0.00 0.18 0.03 76 1021.1
20260506181504 18 159 0.0 4.8 0.00 0.18 0.03 74 1021.1
20260506180009 17 130 0.0 6.4 0.00 0.18 0.03 79 1020.9
20260506174512 17 281 1.6 6.4 0.00 0.18 0.03 76 1021.1
20260506173016 16 219 0.0 3.2 0.00 0.20 0.03 78 1021.1
20260506171523 16 269 0.0 3.2 0.00 0.20 0.03 79 1021.0
20260506170004 16 317 0.0 4.8 0.00 0.20 0.03 80 1021.2
20260506164510 15 202 0.0 3.2 0.00 0.20 0.03 80 1021.2
20260506163030 15 289 0.0 3.2 0.00 0.20 0.03 81 1021.2
20260506161520 14 149 0.0 0.0 0.00 0.20 0.03 82 1021.2
20260506160024 14 274 0.0 3.2 0.00 0.20 0.03 83 1021.3
20260506154504 13 265 0.0 3.2 0.00 0.23 0.03 86 1021.4
20260506153012 13 294 0.0 0.0 0.00 0.23 0.03 87 1021.4
20260506151517 13 294 0.0 1.6 0.00 0.23 0.03 89 1021.2
20260506150026 13 294 0.0 0.0 0.00 0.23 0.03 89 1021.2
20260506144527 12 294 0.0 0.0 0.00 0.23 0.03 90 1021.1
20260506143012 12 294 0.0 0.0 0.00 0.25 0.03 91 1021.1
20260506141515 12 294 0.0 0.0 0.00 0.25 0.03 91 1020.9
20260506140022 12 294 0.0 0.0 0.00 0.25 0.03 92 1020.8
20260506134526 12 294 0.0 0.0 0.00 0.25 0.03 91 1020.9
20260506133027 12 294 0.0 0.0 0.00 0.25 0.03 91 1020.8
20260506131514 12 294 0.0 0.0 0.00 0.28 0.03 91 1020.7
20260506130018 12 294 0.0 0.0 0.00 0.28 0.03 91 1020.7
20260506124505 12 294 0.0 0.0 0.00 0.28 0.03 91 1020.4
20260506123004 12 294 0.0 0.0 0.00 0.28 0.03 91 1020.4
20260506121508 12 294 0.0 0.0 0.00 0.30 0.03 90 1020.3
20260506120014 12 294 0.0 0.0 0.00 0.30 0.03 90 1020.3
20260506114522 12 294 0.0 0.0 0.00 0.30 0.03 89 1020.3
20260506113004 12 294 0.0 0.0 0.00 0.30 0.03 89 1020.1
20260506111512 12 294 0.0 3.2 0.00 0.33 0.03 88 1020.1
20260506110013 12 294 0.0 0.0 0.00 0.33 0.03 88 1020.0
20260506104519 12 294 0.0 0.0 0.00 0.33 0.03 87 1019.9
20260506103024 12 294 0.0 0.0 0.00 0.36 0.03 87 1019.9
20260506101507 12 294 0.0 1.6 0.00 0.36 0.03 87 1019.7
20260506100010 12 294 0.0 0.0 0.00 0.36 0.03 87 1019.7
20260506094514 12 294 0.0 0.0 0.00 0.36 0.03 86 1019.7
20260506093019 13 294 0.0 1.6 0.00 0.38 0.03 86 1019.7
20260506091523 13 294 0.0 3.2 0.00 0.38 0.03 86 1019.7
20260506090005 13 294 0.0 3.2 0.00 0.38 0.03 86 1019.8
20260506084513 13 294 1.6 4.8 0.00 0.38 0.03 85 1019.8
20260506083019 13 271 0.0 3.2 0.03 0.41 0.03 86 1019.8
20260506081519 13 290 1.6 4.8 0.03 0.41 0.03 85 1019.8
20260506073016 13 298 0.0 4.8 0.00 0.41 0.00 83 1019.3
20260506071519 13 295 0.0 1.6 0.00 0.41 0.00 83 1019.2
20260506061520 13 169 0.0 1.6 0.00 0.46 0.43 85 1018.7
20260506044527 13 188 0.0 3.2 0.00 0.51 0.43 81 1018.2
20260506043007 13 180 0.0 1.6 0.00 0.51 0.43 80 1018.0
20260506041517 13 137 0.0 1.6 0.00 0.53 0.43 82 1017.8
20260506040037 13 140 0.0 0.0 0.00 0.53 0.43 80 1017.6
20260506034520 13 140 0.0 3.2 0.00 0.56 0.43 80 1017.4
20260506033023 13 228 0.0 1.6 0.03 0.56 0.43 80 1017.2
20260506031521 13 163 0.0 3.2 0.03 0.56 0.43 80 1017.0
20260506030015 14 170 0.0 3.2 0.03 0.58 0.43 80 1016.7
20260506024520 14 302 0.0 3.2 0.03 0.58 0.43 80 1016.5
20260506023025 14 289 1.6 4.8 0.00 0.58 0.41 78 1016.5
20260506021526 15 132 0.0 3.2 0.00 0.58 0.41 77 1016.4
20260506020010 15 323 1.6 3.2 0.00 0.58 0.41 78 1016.2
20260506014514 15 82 1.6 9.7 0.00 0.61 0.41 77 1016.1
20260506013019 15 137 1.6 11.3 0.00 0.61 0.41 76 1016.0
20260506011524 16 280 1.6 6.4 0.00 0.61 0.41 76 1015.9
20260506010026 16 144 0.0 4.8 0.00 0.64 0.41 77 1015.8
20260506004521 16 336 1.6 6.4 0.00 0.64 0.41 77 1015.8
20260506003016 16 116 1.6 6.4 0.03 0.64 0.41 77 1015.7
20260506001522 16 111 0.0 4.8 0.03 0.66 0.41 77 1015.6
20260506000024 16 125 0.0 6.4 0.03 0.66 0.41 77 1015.6
20260505234528 16 123 0.0 6.4 0.03 0.66 0.41 76 1015.6
20260505233014 16 135 1.6 6.4 0.00 0.66 0.38 75 1015.6
20260505231528 17 139 0.0 11.3 0.00 0.66 0.38 75 1015.6
20260505230027 17 279 0.0 6.4 0.00 0.69 0.38 78 1015.5
20260505224524 17 105 0.0 4.8 0.03 0.71 0.38 75 1015.5
20260505223029 17 103 0.0 4.8 0.03 0.71 0.38 77 1015.6
20260505221517 17 140 1.6 9.7 0.03 0.71 0.38 76 1015.7
20260505220004 17 126 3.2 11.3 0.03 0.71 0.38 76 1015.7
20260505214506 17 123 3.2 9.7 0.00 0.69 0.36 76 1015.8
20260505213007 17 186 0.0 11.3 0.03 0.69 0.36 77 1015.8
20260505211504 17 142 0.0 16.1 0.03 0.69 0.36 76 1015.9
20260505210009 17 134 3.2 9.7 0.03 0.69 0.36 76 1016.0
20260505204505 17 181 1.6 6.4 0.03 0.69 0.36 77 1016.0
20260505203008 16 180 0.0 4.8 0.03 0.66 0.33 80 1016.1